FW9830 Weather Reports


Display with metric or nautical units.
time (UTC)temp
F
wind
direction
speed
MPH
gust
MPH
rain 1hr
in
rain 24hr
in
rain mn
in
humidity
%
barometer
mb
20260507213756 51 243 7.0 14.0 0.00 0.00 0.00 47 1011.6
20260507213254 53 264 5.0 12.0 0.00 0.00 0.00 47 1011.6
20260507212750 51 253 11.0 19.0 0.00 0.00 0.00 48 1011.7
20260507212247 51 230 15.0 19.0 0.00 0.00 0.00 49 1011.8
20260507211743 51 204 7.0 8.0 0.00 0.00 0.00 50 1012.1
20260507211240 50 247 8.0 14.0 0.00 0.00 0.00 50 1011.8
20260507210737 51 246 13.0 17.0 0.00 0.00 0.00 50 1011.7
20260507210233 51 221 7.0 18.0 0.00 0.00 0.00 48 1012.0
20260507205730 51 228 7.0 15.0 0.00 0.00 0.00 50 1012.0
20260507205227 52 248 14.0 18.0 0.00 0.00 0.00 50 1011.9
20260507204723 51 199 9.0 13.0 0.00 0.00 0.00 49 1011.9
20260507204221 50 226 16.0 18.0 0.00 0.00 0.00 49 1012.1
20260507203719 51 240 15.0 18.0 0.00 0.00 0.00 50 1012.0
20260507203216 51 257 13.0 18.0 0.00 0.00 0.00 49 1012.1
20260507202712 51 236 10.0 13.0 0.00 0.00 0.00 49 1012.1
20260507202208 50 232 15.0 19.0 0.00 0.00 0.00 49 1012.3
20260507201703 50 236 10.0 19.0 0.00 0.00 0.00 49 1012.3
20260507201200 50 223 8.0 15.0 0.00 0.00 0.00 51 1012.6
20260507200656 50 256 5.0 11.0 0.00 0.00 0.00 51 1012.7
20260507200152 50 250 8.0 16.0 0.00 0.00 0.00 51 1012.6
20260507195649 50 250 6.0 17.0 0.00 0.00 0.00 52 1012.5
20260507195146 50 254 10.0 14.0 0.00 0.00 0.00 51 1012.8
20260507194643 50 238 10.0 16.0 0.00 0.00 0.00 50 1012.7
20260507194138 49 222 12.0 16.0 0.00 0.00 0.00 50 1012.7
20260507193636 50 198 1.0 19.0 0.00 0.00 0.00 51 1013.0
20260507193133 49 254 5.0 12.0 0.00 0.00 0.00 50 1013.0
20260507192629 49 215 9.0 14.0 0.00 0.00 0.00 50 1012.9
20260507192126 50 237 6.0 14.0 0.00 0.00 0.00 51 1013.0
20260507191621 49 237 15.0 16.0 0.00 0.00 0.00 51 1013.0
20260507191118 49 237 12.0 20.0 0.00 0.00 0.00 51 1013.1
20260507190616 50 227 11.0 16.0 0.00 0.00 0.00 52 1013.0
20260507190115 49 225 11.0 14.0 0.00 0.00 0.00 51 1013.0
20260507185613 49 267 6.0 16.0 0.00 0.00 0.00 52 1013.0
20260507185109 49 248 15.0 17.0 0.00 0.00 0.00 52 1012.8
20260507184607 49 236 12.0 16.0 0.00 0.00 0.00 52 1013.0
20260507184104 49 253 12.0 17.0 0.00 0.00 0.00 53 1013.0
20260507183600 48 283 4.0 20.0 0.00 0.00 0.00 51 1012.8
20260507183058 49 246 4.0 10.0 0.00 0.00 0.00 50 1013.0
20260507182554 49 239 17.0 20.0 0.00 0.00 0.00 52 1013.0
20260507182050 49 228 11.0 16.0 0.00 0.00 0.00 52 1013.2
20260507181547 49 258 9.0 15.0 0.00 0.00 0.00 51 1013.2
20260507181043 48 243 12.0 17.0 0.00 0.00 0.00 51 1013.2
20260507180539 50 234 7.0 17.0 0.00 0.00 0.00 51 1013.4
20260507180037 49 267 9.0 15.0 0.00 0.00 0.00 51 1013.3
20260507175532 48 235 14.0 21.0 0.00 0.00 0.00 50 1013.4
20260507175031 48 245 13.0 24.0 0.00 0.00 0.00 50 1013.5
20260507174527 49 7 2.0 20.0 0.00 0.00 0.00 50 1013.3
20260507174025 49 238 9.0 19.0 0.00 0.00 0.00 51 1013.6
20260507173522 48 240 12.0 20.0 0.00 0.00 0.00 50 1013.5
20260507173019 48 230 15.0 25.0 0.00 0.00 0.00 50 1013.3
20260507172515 48 242 12.0 16.0 0.00 0.00 0.00 51 1013.7
20260507172012 48 220 15.0 20.0 0.00 0.00 0.00 51 1013.6
20260507171507 49 231 17.0 24.0 0.00 0.00 0.00 52 1013.7
20260507171005 48 243 18.0 21.0 0.00 0.00 0.00 50 1013.7
20260507170501 48 229 13.0 20.0 0.00 0.00 0.00 52 1013.7
20260507165958 47 202 12.0 15.0 0.00 0.00 0.00 51 1014.0
20260507165454 47 225 4.0 15.0 0.00 0.00 0.00 52 1014.1
20260507164950 47 241 23.0 24.0 0.00 0.00 0.00 52 1014.0
20260507164447 48 226 11.0 22.0 0.00 0.00 0.00 53 1014.3
20260507163944 48 247 16.0 20.0 0.00 0.00 0.00 51 1014.1
20260507163441 48 221 7.0 19.0 0.00 0.00 0.00 50 1014.3
20260507162938 47 219 9.0 20.0 0.00 0.00 0.00 50 1014.3
20260507162433 47 240 13.0 16.0 0.00 0.00 0.00 51 1014.4
20260507161931 46 299 8.0 16.0 0.00 0.00 0.00 49 1014.5
20260507161427 47 244 12.0 20.0 0.00 0.00 0.00 50 1014.7
20260507160924 47 245 14.0 26.0 0.00 0.00 0.00 50 1014.7
20260507160420 48 235 16.0 21.0 0.00 0.00 0.00 49 1014.5
20260507155916 47 216 7.0 11.0 0.00 0.00 0.00 48 1014.6
20260507155412 46 266 6.0 24.0 0.00 0.00 0.00 48 1014.7
20260507154909 47 235 16.0 16.0 0.00 0.00 0.00 50 1014.7
20260507154406 47 185 3.0 13.0 0.00 0.00 0.00 51 1014.7
20260507153903 48 249 10.0 16.0 0.00 0.00 0.00 52 1014.6
20260507153359 46 243 11.0 17.0 0.00 0.00 0.00 52 1014.7
20260507152856 47 227 10.0 11.0 0.00 0.00 0.00 52 1015.0
20260507152352 46 251 8.0 13.0 0.00 0.00 0.00 51 1014.9
20260507151848 45 259 6.0 11.0 0.00 0.00 0.00 50 1015.0
20260507151344 46 324 6.0 11.0 0.00 0.00 0.00 51 1014.7
20260507150842 45 273 6.0 13.0 0.00 0.00 0.00 54 1014.9
20260507150338 45 249 7.0 13.0 0.00 0.00 0.00 52 1015.0
20260507145834 46 282 6.0 15.0 0.00 0.00 0.00 55 1015.1
20260507145331 45 228 15.0 15.0 0.00 0.00 0.00 56 1015.2
20260507144828 44 259 7.0 14.0 0.00 0.00 0.00 54 1015.2
20260507144326 44 244 8.0 9.0 0.00 0.00 0.00 52 1015.3
20260507143822 44 325 8.0 14.0 0.00 0.00 0.00 51 1015.4
20260507143319 45 300 7.0 15.0 0.00 0.00 0.00 52 1015.5
20260507142815 46 303 13.0 14.0 0.00 0.00 0.00 56 1015.4
20260507142312 44 299 14.0 16.0 0.00 0.00 0.00 49 1015.7
20260507141809 45 315 16.0 16.0 0.00 0.00 0.00 54 1015.7
20260507141306 45 316 16.0 16.0 0.00 0.00 0.00 55 1015.4
20260507140801 45 332 10.0 15.0 0.00 0.00 0.00 55 1015.5
20260507140259 45 332 8.0 15.0 0.00 0.00 0.00 56 1015.9
20260507135756 44 315 13.0 16.0 0.00 0.00 0.00 56 1015.6
20260507135253 43 317 12.0 17.0 0.00 0.00 0.00 56 1015.6
20260507134750 43 320 13.0 18.0 0.00 0.00 0.00 57 1015.6
20260507134246 43 320 11.0 13.0 0.00 0.00 0.00 59 1015.6
20260507133742 43 301 8.0 13.0 0.00 0.00 0.00 58 1015.7
20260507133239 43 344 6.0 14.0 0.00 0.00 0.00 60 1015.9
20260507132736 43 282 11.0 18.0 0.00 0.00 0.00 61 1015.6
20260507132233 43 292 10.0 13.0 0.00 0.00 0.00 64 1015.8
20260507131730 42 329 11.0 11.0 0.00 0.00 0.00 65 1015.9
20260507131227 41 323 10.0 15.0 0.00 0.00 0.00 67 1015.8
20260507130724 41 301 8.0 13.0 0.00 0.00 0.00 69 1016.0
20260507130221 40 295 4.0 9.0 0.00 0.00 0.00 70 1016.0
20260507125720 40 290 4.0 11.0 0.00 0.00 0.00 70 1016.0
20260507125217 40 298 10.0 13.0 0.00 0.00 0.00 70 1015.7
20260507124713 40 325 5.0 9.0 0.00 0.00 0.00 71 1015.9
20260507124211 40 298 9.0 15.0 0.00 0.00 0.00 71 1015.7
20260507123709 40 297 10.0 11.0 0.00 0.00 0.00 72 1015.9
20260507123206 40 258 6.0 12.0 0.00 0.00 0.00 72 1015.7
20260507122701 40 339 7.0 11.0 0.00 0.00 0.00 72 1015.7
20260507122157 40 264 6.0 10.0 0.00 0.00 0.00 71 1015.8
20260507121653 40 114 1.0 9.0 0.00 0.00 0.00 73 1015.7
20260507121149 40 301 4.0 10.0 0.00 0.00 0.00 73 1015.8
20260507120646 40 279 4.0 10.0 0.00 0.00 0.00 73 1015.9
20260507120143 40 270 5.0 9.0 0.00 0.00 0.00 72 1015.5
20260507115639 40 264 3.0 12.0 0.00 0.00 0.00 71 1015.6
20260507115134 39 270 5.0 8.0 0.00 0.00 0.00 72 1015.6
20260507114630 39 300 6.0 6.0 0.00 0.00 0.00 73 1015.4
20260507114128 39 289 9.0 9.0 0.00 0.00 0.00 72 1015.5
20260507113625 39 313 5.0 7.0 0.00 0.00 0.00 72 1015.6
20260507113122 38 321 3.0 7.0 0.00 0.00 0.00 72 1015.4
20260507112620 38 346 3.0 6.0 0.00 0.00 0.00 71 1015.4
20260507112116 38 293 5.0 7.0 0.00 0.00 0.00 70 1015.2
20260507111614 38 337 6.0 6.0 0.00 0.00 0.00 70 1015.3
20260507111110 38 230 2.0 4.0 0.00 0.00 0.00 69 1015.2
20260507110606 38 332 3.0 4.0 0.00 0.00 0.00 69 1015.1
20260507110103 38 303 2.0 3.0 0.00 0.00 0.00 70 1014.9
20260507105600 38 315 4.0 5.0 0.00 0.00 0.00 68 1014.9
20260507105056 38 329 2.0 5.0 0.00 0.00 0.00 68 1014.9
20260507104553 38 302 4.0 5.0 0.00 0.00 0.00 68 1015.0
20260507104050 38 297 1.0 3.0 0.00 0.00 0.00 70 1014.9
20260507103546 38 259 2.0 4.0 0.00 0.00 0.00 71 1015.1
20260507103043 37 5 0.0 2.0 0.00 0.00 0.00 71 1015.0
20260507102539 37 340 0.0 2.0 0.00 0.00 0.00 69 1015.0
20260507102036 37 312 2.0 2.0 0.00 0.00 0.00 71 1015.0
20260507101531 37 270 0.0 3.0 0.00 0.00 0.00 71 1014.8
20260507101028 37 257 0.0 2.0 0.00 0.00 0.00 72 1014.9
20260507100525 36 286 0.0 3.0 0.00 0.00 0.00 72 1015.0
20260507100023 36 257 0.0 3.0 0.00 0.00 0.00 72 1015.1
20260507095521 36 259 2.0 2.0 0.00 0.00 0.00 72 1014.8
20260507095017 36 246 0.0 3.0 0.00 0.00 0.00 71 1015.0
20260507094513 36 276 2.0 3.0 0.00 0.00 0.00 71 1014.9
20260507094011 36 285 1.0 3.0 0.00 0.00 0.00 71 1014.8
20260507093508 35 262 2.0 2.0 0.00 0.00 0.00 72 1015.1
20260507093007 35 237 1.0 3.0 0.00 0.00 0.00 72 1015.2
20260507092503 35 248 2.0 3.0 0.00 0.00 0.00 72 1015.1
20260507091959 36 294 0.0 3.0 0.00 0.00 0.00 72 1015.2
20260507091455 36 262 2.0 2.0 0.00 0.00 0.00 72 1015.3
20260507090951 36 261 2.0 3.0 0.00 0.00 0.00 72 1015.0
20260507090442 36 266 2.0 3.0 0.00 0.00 0.00 72 1015.2
20260507085938 36 254 2.0 2.0 0.00 0.00 0.00 74 1015.1
20260507085436 35 285 2.0 2.0 0.00 0.00 0.00 75 1015.2
20260507084933 35 270 1.0 2.0 0.00 0.00 0.00 75 1015.4
20260507084430 36 250 2.0 2.0 0.00 0.00 0.00 73 1015.2
20260507083927 36 260 2.0 3.0 0.00 0.00 0.00 72 1015.2
20260507083423 36 265 2.0 3.0 0.00 0.00 0.00 72 1015.3
20260507082919 37 297 1.0 3.0 0.00 0.00 0.00 70 1015.5
20260507082415 37 319 2.0 3.0 0.00 0.00 0.00 69 1015.1
20260507081912 37 324 2.0 3.0 0.00 0.00 0.00 70 1015.1
20260507081408 37 326 2.0 3.0 0.00 0.00 0.00 70 1015.0
20260507080905 38 298 4.0 4.0 0.00 0.00 0.00 68 1015.3
20260507080402 37 313 3.0 4.0 0.00 0.00 0.00 70 1015.3
20260507075857 37 291 3.0 4.0 0.00 0.00 0.00 70 1015.5
20260507075353 37 311 3.0 4.0 0.00 0.00 0.00 70 1015.3
20260507074850 38 322 4.0 5.0 0.00 0.00 0.00 68 1015.0
20260507074347 38 310 5.0 5.0 0.00 0.00 0.00 66 1015.1
20260507073844 38 326 3.0 4.0 0.00 0.00 0.00 67 1015.1
20260507073341 38 307 2.0 4.0 0.00 0.00 0.00 66 1015.2
20260507072838 39 309 4.0 5.0 0.00 0.00 0.00 65 1015.2
20260507072336 39 352 3.0 4.0 0.00 0.00 0.00 65 1015.2
20260507071833 39 325 4.0 5.0 0.00 0.00 0.00 65 1015.2
20260507071330 39 345 3.0 4.0 0.00 0.00 0.00 64 1015.3
20260507070826 39 352 3.0 4.0 0.00 0.00 0.00 65 1015.3
20260507070324 39 352 3.0 5.0 0.00 0.00 0.00 65 1015.3
20260507065820 39 301 3.0 4.0 0.00 0.00 0.00 65 1015.5
20260507065317 39 305 3.0 3.0 0.00 0.00 0.00 64 1015.7
20260507064814 39 346 3.0 4.0 0.00 0.00 0.00 64 1015.7
20260507064313 40 340 5.0 6.0 0.00 0.00 0.00 63 1015.6
20260507063810 40 322 3.0 4.0 0.00 0.00 0.00 62 1015.6
20260507063307 40 301 3.0 4.0 0.00 0.00 0.00 61 1015.8
20260507062803 40 323 4.0 4.0 0.00 0.00 0.00 61 1015.9
20260507062300 41 326 3.0 5.0 0.00 0.00 0.00 60 1015.7
20260507061759 40 297 2.0 3.0 0.00 0.00 0.00 62 1015.9
20260507061256 40 283 2.0 3.0 0.00 0.00 0.00 62 1016.1
20260507060754 40 257 3.0 3.0 0.00 0.00 0.00 62 1015.7
20260507060250 41 346 2.0 3.0 0.00 0.00 0.00 59 1016.0
20260507055747 41 342 2.0 3.0 0.00 0.00 0.00 59 1016.0
20260507055242 41 356 2.0 3.0 0.00 0.00 0.00 60 1016.1
20260507054739 41 32 3.0 5.0 0.00 0.00 0.00 60 1016.0
20260507054236 41 29 1.0 3.0 0.00 0.00 0.00 60 1016.1
20260507053733 41 358 3.0 5.0 0.00 0.00 0.00 58 1016.0
20260507053230 41 352 3.0 5.0 0.00 0.00 0.00 58 1016.2
20260507052730 42 341 4.0 7.0 0.00 0.00 0.00 57 1016.3
20260507052225 42 349 3.0 6.0 0.00 0.00 0.00 57 1016.3
20260507051724 42 348 3.0 4.0 0.00 0.00 0.00 57 1016.2
20260507051220 42 328 3.0 7.0 0.00 0.00 0.00 56 1016.3
20260507050717 43 336 6.0 7.0 0.00 0.00 0.00 56 1016.3
20260507050214 42 315 9.0 9.0 0.00 0.00 0.00 57 1016.3
20260507045710 43 317 4.0 6.0 0.00 0.00 0.00 57 1016.2
20260507045206 43 327 4.0 9.0 0.00 0.00 0.00 58 1016.2
20260507044704 43 344 5.0 11.0 0.00 0.00 0.00 57 1016.5
20260507044200 43 347 8.0 9.0 0.00 0.00 0.00 57 1016.3
20260507043657 43 328 5.0 8.0 0.00 0.00 0.00 57 1016.4
20260507043154 43 322 5.0 14.0 0.00 0.00 0.00 57 1016.2
20260507042650 43 320 6.0 15.0 0.00 0.00 0.00 58 1016.2
20260507042145 43 323 8.0 10.0 0.00 0.00 0.00 59 1016.4
20260507041642 43 321 5.0 15.0 0.00 0.00 0.00 58 1016.2
20260507041138 43 335 7.0 14.0 0.00 0.00 0.00 58 1016.2
20260507040636 42 306 9.0 12.0 0.00 0.00 0.00 59 1016.2
20260507040132 42 335 5.0 9.0 0.00 0.00 0.00 60 1016.0
20260507035628 42 305 4.0 7.0 0.00 0.00 0.00 62 1016.1
20260507035124 42 289 6.0 9.0 0.00 0.00 0.00 61 1015.9
20260507034621 42 295 5.0 8.0 0.00 0.00 0.00 60 1016.2
20260507034119 42 312 9.0 10.0 0.00 0.00 0.00 60 1016.2
20260507033617 42 317 7.0 10.0 0.00 0.00 0.00 59 1016.3
20260507033114 42 298 7.0 12.0 0.00 0.00 0.00 60 1016.1
20260507032611 42 312 7.0 12.0 0.00 0.00 0.00 60 1016.0
20260507032107 42 324 8.0 11.0 0.00 0.00 0.00 60 1016.1
20260507031604 42 313 10.0 11.0 0.00 0.00 0.00 60 1015.8
20260507031101 42 302 6.0 11.0 0.00 0.00 0.00 60 1016.0
20260507030557 42 287 5.0 11.0 0.00 0.00 0.00 59 1015.8
20260507030055 42 310 8.0 11.0 0.00 0.00 0.00 60 1015.9
20260507025552 42 301 8.0 12.0 0.00 0.00 0.00 60 1016.0
20260507025049 42 319 8.0 12.0 0.00 0.00 0.00 60 1015.8
20260507024547 42 312 8.0 10.0 0.00 0.00 0.00 61 1015.8
20260507024044 42 320 7.0 11.0 0.00 0.00 0.00 60 1016.0
20260507023539 42 296 7.0 10.0 0.00 0.00 0.00 60 1015.9
20260507023037 42 318 10.0 12.0 0.00 0.00 0.00 59 1015.9
20260507022534 43 319 8.0 14.0 0.00 0.00 0.00 57 1015.9
20260507022029 43 311 12.0 14.0 0.00 0.00 0.00 57 1015.7
20260507021525 43 321 7.0 12.0 0.00 0.00 0.00 58 1015.7
20260507021022 43 289 9.0 9.0 0.00 0.00 0.00 58 1015.6
20260507020519 43 304 6.0 11.0 0.00 0.00 0.00 58 1015.8
20260507020016 43 301 9.0 12.0 0.00 0.00 0.00 57 1015.4
20260507015515 43 329 7.0 13.0 0.00 0.00 0.00 57 1015.5
20260507015012 44 335 10.0 14.0 0.00 0.00 0.00 55 1015.5
20260507014508 44 295 15.0 17.0 0.00 0.00 0.00 55 1015.5
20260507014004 44 301 11.0 15.0 0.00 0.00 0.00 55 1015.3
20260507013500 44 329 7.0 13.0 0.00 0.00 0.00 55 1015.2
20260507012958 44 320 10.0 12.0 0.00 0.00 0.00 54 1015.2
20260507012455 44 321 9.0 17.0 0.00 0.00 0.00 54 1015.2
20260507011951 44 330 7.0 14.0 0.00 0.00 0.00 56 1015.1
20260507011448 45 322 14.0 14.0 0.00 0.00 0.00 54 1015.2
20260507010944 45 336 13.0 16.0 0.00 0.00 0.00 53 1015.2
20260507010439 45 322 7.0 12.0 0.00 0.00 0.00 53 1015.2
20260507005936 45 331 8.0 16.0 0.00 0.00 0.00 51 1015.2
20260507005433 45 299 13.0 19.0 0.00 0.00 0.00 52 1015.0
20260507004930 45 318 12.0 17.0 0.00 0.00 0.00 50 1014.9
20260507004426 46 321 12.0 16.0 0.00 0.00 0.00 50 1015.0
20260507003924 46 315 9.0 15.0 0.00 0.00 0.00 50 1015.0
20260507003419 46 306 13.0 16.0 0.00 0.00 0.00 49 1015.2
20260507002914 47 345 10.0 18.0 0.00 0.00 0.00 49 1014.7
20260507002410 47 328 11.0 21.0 0.00 0.00 0.00 50 1015.0
20260507001908 47 310 8.0 18.0 0.00 0.00 0.00 48 1014.6
20260507001404 47 321 15.0 21.0 0.00 0.00 0.00 48 1014.7
20260507000902 48 317 17.0 20.0 0.00 0.00 0.00 48 1014.7
20260507000358 48 346 13.0 20.0 0.00 0.00 0.00 48 1014.5
20260506235853 48 317 15.0 23.0 0.00 0.00 0.00 48 1014.6
20260506235350 48 303 19.0 25.0 0.00 0.00 0.00 47 1014.7
20260506234846 49 305 16.0 20.0 0.00 0.00 0.00 47 1014.5
20260506234344 49 317 6.0 11.0 0.00 0.00 0.00 47 1014.5
20260506233841 49 340 12.0 15.0 0.00 0.00 0.00 46 1014.4
20260506233337 49 334 12.0 21.0 0.00 0.00 0.00 46 1014.4
20260506232835 49 353 22.0 22.0 0.00 0.00 0.00 46 1014.5
20260506232330 49 304 17.0 21.0 0.00 0.00 0.00 45 1014.4
20260506231827 50 314 25.0 25.0 0.00 0.00 0.00 44 1014.3
20260506231325 50 309 19.0 22.0 0.00 0.00 0.00 45 1014.1
20260506230822 50 320 10.0 18.0 0.00 0.00 0.00 44 1014.3
20260506230318 50 338 12.0 22.0 0.00 0.00 0.00 45 1014.3
20260506225814 50 297 17.0 22.0 0.00 0.00 0.00 44 1014.1
20260506225312 51 316 10.0 17.0 0.00 0.00 0.00 44 1014.1
20260506224809 50 301 12.0 20.0 0.00 0.00 0.00 44 1014.4
20260506224306 50 316 16.0 23.0 0.00 0.00 0.00 45 1014.1
20260506223802 50 318 11.0 23.0 0.00 0.00 0.00 45 1014.4
20260506223257 50 312 20.0 21.0 0.00 0.00 0.00 43 1014.3
20260506222754 49 331 6.0 15.0 0.00 0.00 0.00 46 1014.0
20260506222250 50 321 8.0 18.0 0.00 0.00 0.00 45 1014.3
20260506221748 50 349 8.0 15.0 0.00 0.00 0.00 46 1014.1
20260506221246 49 297 16.0 18.0 0.00 0.00 0.00 45 1014.1
20260506220743 50 314 17.0 24.0 0.00 0.00 0.00 46 1014.4
20260506220238 50 298 10.0 15.0 0.00 0.00 0.00 47 1013.9
20260506215735 50 276 12.0 20.0 0.00 0.00 0.00 45 1014.4
20260506215230 51 291 14.0 20.0 0.00 0.00 0.00 45 1014.3
20260506214727 50 334 12.0 22.0 0.00 0.00 0.00 44 1014.3
20260506214224 50 323 12.0 17.0 0.00 0.00 0.00 45 1014.0